| time (UTC) | temp C | wind direction | speed KPH | gust KPH | rain 1hr cm | rain 24hr cm | rain mn cm | humidity % | barometer mb |
| 20260831023804 | 19 | 17 | 0.0 | 1.6 | 0.00 | 0.00 | 0.00 | 85 | 1022.0 |
| 20260831023305 | 19 | 17 | 0.0 | 3.2 | 0.00 | 0.00 | 0.00 | 85 | 1022.0 |
| 20260831022805 | 19 | 8 | 0.0 | 1.6 | 0.00 | 0.00 | 0.00 | 85 | 1022.0 |
| 20260831022306 | 19 | 2 | 0.0 | 1.6 | 0.00 | 0.00 | 0.00 | 85 | 1022.0 |
| 20260831021805 | 19 | 8 | 0.0 | 1.6 | 0.00 | 0.00 | 0.00 | 85 | 1022.0 |
| 20260831021305 | 19 | 13 | 0.0 | 1.6 | 0.00 | 0.00 | 0.00 | 85 | 1022.0 |
| 20260831020805 | 19 | 26 | 1.6 | 3.2 | 0.00 | 0.00 | 0.00 | 85 | 1022.0 |
| 20260831020305 | 19 | 15 | 1.6 | 4.8 | 0.00 | 0.00 | 0.00 | 85 | 1022.0 |
| 20260831015805 | 19 | 2 | 0.0 | 3.2 | 0.00 | 0.00 | 0.00 | 84 | 1022.0 |
| 20260831015306 | 20 | 7 | 0.0 | 3.2 | 0.00 | 0.00 | 0.00 | 85 | 1022.0 |
| 20260831014804 | 20 | 0 | 0.0 | 1.6 | 0.00 | 0.00 | 0.00 | 85 | 1022.0 |
| 20260831014305 | 20 | 12 | 0.0 | 1.6 | 0.00 | 0.00 | 0.00 | 85 | 1022.0 |
| 20260831012306 | 20 | 20 | 0.0 | 1.6 | 0.00 | 0.00 | 0.00 | 85 | 1022.0 |
| 20260831011805 | 20 | 352 | 0.0 | 3.2 | 0.00 | 0.00 | 0.00 | 85 | 1022.0 |
| 20260831003305 | 20 | 21 | 1.6 | 3.2 | 0.00 | 0.00 | 0.00 | 85 | 1022.0 |
| 20260831002805 | 20 | 29 | 1.6 | 1.6 | 0.00 | 0.00 | 0.00 | 85 | 1022.0 |
| 20260831002306 | 20 | 5 | 0.0 | 1.6 | 0.00 | 0.00 | 0.00 | 85 | 1022.0 |
| 20260831000805 | 20 | 13 | 0.0 | 1.6 | 0.00 | 0.00 | 0.00 | 85 | 1022.0 |
| 20260831000304 | 20 | 15 | 0.0 | 3.2 | 0.00 | 0.00 | 0.00 | 85 | 1022.0 |
| 20260830234805 | 20 | 289 | 0.0 | 0.0 | 0.00 | 0.00 | 0.00 | 85 | 1022.0 |
| 20260830230804 | 20 | 305 | 1.6 | 4.8 | 0.00 | 0.00 | 0.00 | 84 | 1022.0 |
| 20260830230305 | 20 | 331 | 0.0 | 1.6 | 0.00 | 0.00 | 0.00 | 84 | 1022.0 |
| 20260830225306 | 20 | 21 | 1.6 | 3.2 | 0.00 | 0.00 | 0.00 | 84 | 1022.0 |
| 20260830224804 | 20 | 22 | 1.6 | 4.8 | 0.00 | 0.00 | 0.00 | 84 | 1022.0 |
| 20260830224305 | 20 | 15 | 0.0 | 0.0 | 0.00 | 0.00 | 0.00 | 83 | 1022.0 |
| 20260830223804 | 20 | 15 | 1.6 | 4.8 | 0.00 | 0.00 | 0.00 | 83 | 1022.0 |
| 20260830223304 | 20 | 35 | 1.6 | 3.2 | 0.00 | 0.00 | 0.00 | 83 | 1022.0 |
| 20260830222805 | 20 | 35 | 0.0 | 4.8 | 0.00 | 0.00 | 0.00 | 82 | 1022.0 |
| 20260830221304 | 20 | 37 | 3.2 | 4.8 | 0.00 | 0.00 | 0.00 | 82 | 1022.0 |
| 20260830220805 | 20 | 25 | 0.0 | 3.2 | 0.00 | 0.00 | 0.00 | 81 | 1022.0 |
| 20260830220305 | 20 | 25 | 1.6 | 4.8 | 0.00 | 0.00 | 0.00 | 81 | 1022.0 |
| 20260830215805 | 20 | 23 | 1.6 | 4.8 | 0.00 | 0.00 | 0.00 | 81 | 1022.0 |
| 20260830215305 | 21 | 33 | 0.0 | 3.2 | 0.00 | 0.00 | 0.00 | 81 | 1022.0 |
| 20260830214805 | 21 | 31 | 0.0 | 3.2 | 0.00 | 0.00 | 0.00 | 81 | 1022.0 |
| 20260830213805 | 21 | 74 | 0.0 | 4.8 | 0.00 | 0.00 | 0.00 | 80 | 1022.0 |
| 20260830213305 | 21 | 42 | 1.6 | 4.8 | 0.00 | 0.00 | 0.00 | 80 | 1022.0 |
| 20260830212805 | 21 | 35 | 1.6 | 4.8 | 0.00 | 0.00 | 0.00 | 79 | 1022.0 |
| 20260830210304 | 21 | 33 | 0.0 | 3.2 | 0.00 | 0.00 | 0.00 | 77 | 1021.0 |
| 20260830205804 | 21 | 0 | 1.6 | 3.2 | 0.00 | 0.00 | 0.00 | 77 | 1021.0 |
| 20260830205306 | 21 | 44 | 0.0 | 3.2 | 0.00 | 0.00 | 0.00 | 77 | 1021.0 |
| 20260830201804 | 22 | 200 | 1.6 | 4.8 | 0.00 | 0.00 | 0.00 | 76 | 1021.0 |
| 20260830201305 | 22 | 200 | 1.6 | 3.2 | 0.00 | 0.00 | 0.00 | 76 | 1021.0 |
| 20260830200805 | 22 | 187 | 1.6 | 4.8 | 0.00 | 0.00 | 0.00 | 75 | 1021.0 |
| 20260830200305 | 22 | 220 | 0.0 | 1.6 | 0.00 | 0.00 | 0.00 | 75 | 1021.0 |
| 20260830195804 | 22 | 220 | 0.0 | 4.8 | 0.00 | 0.00 | 0.00 | 75 | 1021.0 |
| 20260830195305 | 22 | 220 | 3.2 | 4.8 | 0.00 | 0.00 | 0.00 | 75 | 1021.0 |
| 20260830193305 | 22 | 239 | 0.0 | 4.8 | 0.00 | 0.00 | 0.00 | 74 | 1021.0 |
| 20260830192805 | 22 | 201 | 3.2 | 4.8 | 0.00 | 0.00 | 0.00 | 74 | 1021.0 |
| 20260830192305 | 22 | 235 | 1.6 | 4.8 | 0.00 | 0.00 | 0.00 | 73 | 1021.0 |
| 20260830190304 | 23 | 233 | 3.2 | 4.8 | 0.00 | 0.00 | 0.00 | 72 | 1021.0 |
| 20260830185805 | 23 | 333 | 3.2 | 8.0 | 0.00 | 0.00 | 0.00 | 72 | 1021.0 |
| 20260830185306 | 23 | 200 | 4.8 | 8.0 | 0.00 | 0.00 | 0.00 | 72 | 1021.0 |
| 20260830184806 | 23 | 251 | 6.4 | 9.7 | 0.00 | 0.00 | 0.00 | 71 | 1021.0 |
| 20260830184304 | 23 | 208 | 4.8 | 9.7 | 0.00 | 0.00 | 0.00 | 71 | 1021.0 |
| 20260830183805 | 23 | 218 | 4.8 | 8.0 | 0.00 | 0.00 | 0.00 | 72 | 1021.0 |
| 20260830183304 | 23 | 252 | 4.8 | 9.7 | 0.00 | 0.00 | 0.00 | 71 | 1021.0 |
| 20260830182805 | 23 | 257 | 4.8 | 8.0 | 0.00 | 0.00 | 0.00 | 71 | 1021.0 |
| 20260830180805 | 24 | 258 | 1.6 | 8.0 | 0.00 | 0.00 | 0.00 | 68 | 1021.0 |
| 20260830174804 | 24 | 265 | 4.8 | 11.3 | 0.00 | 0.00 | 0.00 | 67 | 1021.0 |
| 20260830174305 | 24 | 285 | 3.2 | 9.7 | 0.00 | 0.00 | 0.00 | 67 | 1021.0 |
| 20260830171304 | 25 | 270 | 6.4 | 12.9 | 0.00 | 0.00 | 0.00 | 64 | 1021.0 |
| 20260830170805 | 25 | 270 | 4.8 | 14.5 | 0.00 | 0.00 | 0.00 | 66 | 1021.0 |
| 20260830170304 | 25 | 268 | 4.8 | 11.3 | 0.00 | 0.00 | 0.00 | 65 | 1021.0 |
| 20260830165804 | 25 | 243 | 4.8 | 14.5 | 0.00 | 0.00 | 0.00 | 65 | 1021.0 |
| 20260830165306 | 24 | 275 | 8.0 | 11.3 | 0.00 | 0.00 | 0.00 | 67 | 1021.0 |
| 20260830164804 | 24 | 257 | 6.4 | 12.9 | 0.00 | 0.00 | 0.00 | 67 | 1021.0 |
| 20260830164305 | 24 | 259 | 8.0 | 12.9 | 0.00 | 0.00 | 0.00 | 66 | 1021.0 |
| 20260830163804 | 24 | 242 | 8.0 | 14.5 | 0.00 | 0.00 | 0.00 | 66 | 1021.0 |
| 20260830163304 | 25 | 272 | 4.8 | 9.7 | 0.00 | 0.00 | 0.00 | 67 | 1021.0 |
| 20260830162804 | 25 | 267 | 6.4 | 16.1 | 0.00 | 0.00 | 0.00 | 65 | 1021.0 |
| 20260830162306 | 24 | 212 | 4.8 | 11.3 | 0.00 | 0.00 | 0.00 | 67 | 1021.0 |
| 20260830161804 | 24 | 208 | 6.4 | 12.9 | 0.00 | 0.00 | 0.00 | 66 | 1021.0 |
| 20260830161304 | 24 | 230 | 8.0 | 14.5 | 0.00 | 0.00 | 0.00 | 66 | 1021.0 |
| 20260830160804 | 25 | 192 | 8.0 | 12.9 | 0.00 | 0.00 | 0.00 | 65 | 1021.0 |
| 20260830160304 | 24 | 251 | 4.8 | 11.3 | 0.00 | 0.00 | 0.00 | 66 | 1021.0 |
| 20260830155804 | 24 | 218 | 6.4 | 12.9 | 0.00 | 0.00 | 0.00 | 66 | 1021.0 |
| 20260830155306 | 24 | 279 | 6.4 | 11.3 | 0.00 | 0.00 | 0.00 | 68 | 1021.0 |
| 20260830154804 | 24 | 263 | 6.4 | 11.3 | 0.00 | 0.00 | 0.00 | 67 | 1021.0 |
| 20260830154305 | 25 | 242 | 6.4 | 9.7 | 0.00 | 0.00 | 0.00 | 66 | 1021.0 |
| 20260830152804 | 24 | 236 | 4.8 | 11.3 | 0.00 | 0.00 | 0.00 | 68 | 1021.0 |
| 20260830152306 | 23 | 251 | 8.0 | 19.3 | 0.00 | 0.00 | 0.00 | 68 | 1021.0 |
| 20260830151805 | 24 | 268 | 4.8 | 12.9 | 0.00 | 0.00 | 0.00 | 67 | 1021.0 |
| 20260830150305 | 24 | 221 | 8.0 | 16.1 | 0.00 | 0.00 | 0.00 | 64 | 1021.0 |
| 20260830145806 | 24 | 214 | 11.3 | 16.1 | 0.00 | 0.00 | 0.00 | 66 | 1021.0 |
| 20260830144805 | 24 | 210 | 6.4 | 16.1 | 0.00 | 0.00 | 0.00 | 65 | 1021.0 |
| 20260830144306 | 25 | 205 | 8.0 | 19.3 | 0.00 | 0.00 | 0.00 | 62 | 1021.0 |
| 20260830142805 | 25 | 186 | 8.0 | 12.9 | 0.00 | 0.00 | 0.00 | 62 | 1021.0 |
| 20260830134806 | 24 | 201 | 8.0 | 11.3 | 0.00 | 0.00 | 0.00 | 65 | 1021.0 |
| 20260830133305 | 25 | 198 | 8.0 | 11.3 | 0.00 | 0.00 | 0.00 | 63 | 1022.0 |
| 20260830132805 | 25 | 211 | 8.0 | 11.3 | 0.00 | 0.00 | 0.00 | 64 | 1022.0 |
| 20260830132306 | 25 | 187 | 8.0 | 11.3 | 0.00 | 0.00 | 0.00 | 64 | 1022.0 |
| 20260830131806 | 25 | 224 | 4.8 | 11.3 | 0.00 | 0.00 | 0.00 | 64 | 1022.0 |
| 20260830131305 | 23 | 214 | 8.0 | 11.3 | 0.00 | 0.00 | 0.00 | 67 | 1022.0 |
| 20260830130806 | 24 | 182 | 6.4 | 14.5 | 0.00 | 0.00 | 0.00 | 66 | 1022.0 |
| 20260830130305 | 24 | 191 | 8.0 | 12.9 | 0.00 | 0.00 | 0.00 | 67 | 1022.0 |
| 20260830125805 | 25 | 243 | 8.0 | 11.3 | 0.00 | 0.00 | 0.00 | 67 | 1022.0 |
| 20260830125306 | 25 | 244 | 8.0 | 11.3 | 0.00 | 0.00 | 0.00 | 66 | 1022.0 |
| 20260830124805 | 25 | 208 | 8.0 | 12.9 | 0.00 | 0.00 | 0.00 | 65 | 1022.0 |
| 20260830124305 | 24 | 210 | 6.4 | 11.3 | 0.00 | 0.00 | 0.00 | 70 | 1022.0 |
| 20260830123806 | 24 | 224 | 8.0 | 11.3 | 0.00 | 0.00 | 0.00 | 68 | 1022.0 |
| 20260830123305 | 24 | 221 | 8.0 | 16.1 | 0.00 | 0.00 | 0.00 | 68 | 1022.0 |
| 20260830122806 | 24 | 213 | 9.7 | 12.9 | 0.00 | 0.00 | 0.00 | 67 | 1022.0 |
| 20260830121305 | 24 | 217 | 8.0 | 16.1 | 0.00 | 0.00 | 0.00 | 70 | 1022.0 |
| 20260830112306 | 22 | 201 | 4.8 | 11.3 | 0.00 | 0.00 | 0.00 | 71 | 1022.0 |
| 20260830111806 | 23 | 204 | 4.8 | 11.3 | 0.00 | 0.00 | 0.00 | 69 | 1022.0 |
| 20260830111305 | 23 | 212 | 4.8 | 9.7 | 0.00 | 0.00 | 0.00 | 69 | 1022.0 |
| 20260830110805 | 23 | 172 | 4.8 | 8.0 | 0.00 | 0.00 | 0.00 | 71 | 1022.0 |
| 20260830110306 | 23 | 232 | 4.8 | 9.7 | 0.00 | 0.00 | 0.00 | 70 | 1022.0 |
| 20260830105806 | 23 | 223 | 4.8 | 9.7 | 0.00 | 0.00 | 0.00 | 71 | 1022.0 |
| 20260830100805 | 22 | 209 | 4.8 | 8.0 | 0.00 | 0.00 | 0.00 | 72 | 1007.0 |
| 20260830100305 | 22 | 212 | 4.8 | 8.0 | 0.00 | 0.00 | 0.00 | 72 | 1007.0 |
| 20260830095805 | 22 | 222 | 4.8 | 9.7 | 0.00 | 0.00 | 0.00 | 74 | 1007.0 |
| 20260830095306 | 22 | 232 | 3.2 | 4.8 | 0.00 | 0.00 | 0.00 | 75 | 1008.9 |
| 20260830094805 | 22 | 237 | 3.2 | 4.8 | 0.00 | 0.00 | 0.00 | 74 | 1002.9 |
| 20260830094306 | 22 | 257 | 1.6 | 3.2 | 0.00 | 0.00 | 0.00 | 75 | 1009.5 |
| 20260830091805 | 21 | 251 | 3.2 | 4.8 | 0.00 | 0.00 | 0.00 | 75 | 1005.9 |
| 20260830091305 | 21 | 286 | 3.2 | 8.0 | 0.00 | 0.00 | 0.00 | 75 | 1007.5 |
| 20260830090805 | 21 | 248 | 3.2 | 9.7 | 0.00 | 0.00 | 0.00 | 75 | 1003.6 |
| 20260830090305 | 21 | 237 | 6.4 | 9.7 | 0.00 | 0.00 | 0.00 | 74 | 1003.7 |
| 20260830085805 | 21 | 276 | 3.2 | 8.0 | 0.00 | 0.00 | 0.00 | 75 | 1002.0 |
| 20260830084305 | 21 | 268 | 4.8 | 8.0 | 0.00 | 0.00 | 0.00 | 74 | 1003.8 |
| 20260830083805 | 21 | 260 | 4.8 | 8.0 | 0.00 | 0.00 | 0.00 | 75 | 1009.5 |
| 20260830083305 | 21 | 267 | 4.8 | 8.0 | 0.00 | 0.00 | 0.00 | 74 | 1006.7 |
| 20260830073805 | 19 | 346 | 3.2 | 4.8 | 0.00 | 0.00 | 0.00 | 71 | 1011.7 |
| 20260830073305 | 19 | 343 | 1.6 | 4.8 | 0.00 | 0.00 | 0.00 | 69 | 1008.8 |
| 20260830072805 | 19 | 8 | 3.2 | 8.0 | 0.00 | 0.00 | 0.00 | 69 | 1013.3 |
| 20260830072306 | 19 | 29 | 3.2 | 4.8 | 0.00 | 0.00 | 0.00 | 69 | 1011.5 |
| 20260830071806 | 19 | 71 | 3.2 | 4.8 | 0.00 | 0.00 | 0.00 | 70 | 1011.9 |
| 20260830071305 | 19 | 51 | 1.6 | 4.8 | 0.00 | 0.00 | 0.00 | 71 | 1012.6 |
| 20260830070305 | 18 | 34 | 4.8 | 9.7 | 0.00 | 0.00 | 0.00 | 70 | 1012.0 |
| 20260830065805 | 18 | 27 | 4.8 | 11.3 | 0.00 | 0.00 | 0.00 | 71 | 1009.8 |
| 20260830065306 | 18 | 50 | 3.2 | 11.3 | 0.00 | 0.00 | 0.00 | 70 | 1011.8 |
| 20260830064305 | 19 | 32 | 3.2 | 4.8 | 0.00 | 0.00 | 0.00 | 72 | 1013.2 |
| 20260830063805 | 19 | 36 | 4.8 | 14.5 | 0.00 | 0.00 | 0.00 | 72 | 1009.9 |
| 20260830063305 | 19 | 42 | 3.2 | 9.7 | 0.00 | 0.00 | 0.00 | 73 | 1012.7 |
| 20260830061805 | 19 | 41 | 1.6 | 8.0 | 0.00 | 0.00 | 0.00 | 74 | 1011.4 |
| 20260830061305 | 18 | 33 | 6.4 | 11.3 | 0.00 | 0.00 | 0.00 | 73 | 1012.5 |
| 20260830060805 | 18 | 50 | 4.8 | 9.7 | 0.00 | 0.00 | 0.00 | 72 | 1012.5 |
| 20260830060305 | 18 | 39 | 4.8 | 14.5 | 0.00 | 0.00 | 0.00 | 72 | 1011.9 |
| 20260830055805 | 18 | 18 | 4.8 | 14.5 | 0.00 | 0.00 | 0.00 | 71 | 1012.5 |
| 20260830055307 | 18 | 45 | 3.2 | 8.0 | 0.00 | 0.00 | 0.00 | 71 | 1013.3 |
| 20260830054305 | 18 | 31 | 3.2 | 8.0 | 0.00 | 0.00 | 0.00 | 73 | 1011.7 |
| 20260830053805 | 18 | 31 | 3.2 | 8.0 | 0.00 | 0.00 | 0.00 | 74 | 1012.3 |
| 20260830052805 | 18 | 60 | 1.6 | 4.8 | 0.00 | 0.00 | 0.00 | 74 | 1014.2 |
| 20260830044805 | 18 | 19 | 4.8 | 11.3 | 0.00 | 0.00 | 0.00 | 73 | 1015.1 |
| 20260830044305 | 18 | 30 | 4.8 | 12.9 | 0.00 | 0.00 | 0.00 | 73 | 1014.5 |
| 20260830043805 | 18 | 26 | 4.8 | 11.3 | 0.00 | 0.00 | 0.00 | 72 | 1013.8 |
| 20260830043305 | 18 | 8 | 4.8 | 8.0 | 0.00 | 0.00 | 0.00 | 72 | 1013.8 |
| 20260830042306 | 18 | 332 | 3.2 | 8.0 | 0.00 | 0.00 | 0.00 | 73 | 1011.8 |
| 20260830041304 | 18 | 84 | 3.2 | 4.8 | 0.00 | 0.00 | 0.00 | 76 | 1014.0 |
| 20260830040305 | 18 | 1 | 1.6 | 4.8 | 0.00 | 0.00 | 0.00 | 77 | 1014.3 |
| 20260830035804 | 18 | 119 | 0.0 | 3.2 | 0.00 | 0.00 | 0.00 | 78 | 1014.2 |
| 20260830032306 | 18 | 355 | 3.2 | 4.8 | 0.00 | 0.00 | 0.00 | 80 | 1014.3 |
| 20260830030805 | 18 | 4 | 3.2 | 4.8 | 0.00 | 0.00 | 0.00 | 83 | 1014.6 |
| 20260830030305 | 18 | 7 | 1.6 | 4.8 | 0.00 | 0.00 | 0.00 | 83 | 1015.5 |
| 20260830025804 | 18 | 10 | 1.6 | 4.8 | 0.00 | 0.00 | 0.00 | 83 | 1016.1 |
| 20260830025306 | 18 | 14 | 1.6 | 4.8 | 0.00 | 0.00 | 0.00 | 83 | 1016.1 |
| 20260830024805 | 18 | 13 | 3.2 | 4.8 | 0.00 | 0.00 | 0.00 | 82 | 1016.9 |